Regional Weather Roundup
Issued by NWS

Home | Current Version | Previous Version | Text Only | Print | Product List | Glossary Off
Versions: 1 2 3 4 5 6 7 8 9 10 11 12 13 14 15 16 17 18 19 20 21 22 23 24 25 26 27 28 29 30 31 32 33 34 35 36 37 38 39 40 41 42 43 44 45 46 47 48 49 50

000
ASUS43 KDMX 291806
RWRIA

WEATHER ROUNDUP FOR IOWA
NATIONAL WEATHER SERVICE DES MOINES IA
100 PM CDT MON MAY 29 2017

NOTE: "FAIR" INDICATES FEW OR NO CLOUDS BELOW 12,000 FEET WITH NO
SIGNIFICANT WEATHER AND/OR OBSTRUCTIONS TO VISIBILITY.

* - THESE STATIONS ARE NOT NWS STATIONS...THUS NOT UNDER NWS
QUALITY CONTROL.  THEY ALSO DO NOT REPORT WEATHER SUCH
AS PRECIPITATION OR FOG.

IAZ001>003-012>014-020>022-031>034-043>046-291900-
   NORTHWEST IOWA

CITY           SKY/WX    TMP DP  RH WIND       PRES   REMARKS
CARROLL *      MOSUNNY   72  43  35 W22G29    29.97R
CHEROKEE *     PTSUNNY   66  45  47 NW17G31   29.97R
DENISON *      MOSUNNY   68  43  40 W15G25    30.00S
LE MARS *      PTSUNNY   66  43  42 W21G28    29.99S
ORANGE CITY *  MOSUNNY   64  46  52 NW21G32   29.98S
SHELDON *      PTSUNNY   64  43  45 NW21G29   29.95S
SIOUX CITY     MOSUNNY   70  45  40 NW22G37   29.99S
6HR MIN TEMP:  50; 6HR MAX TEMP:  71;

SPENCER        CLOUDY    64  45  49 NW22G35   29.94S
6HR MIN TEMP:  53; 6HR MAX TEMP:  66;

STORM LAKE *     N/A     68  41  37 W25G32    29.96R
$$

IAZ055>058-069>071-079>083-090>094-291900-
   SOUTHWEST IOWA

CITY           SKY/WX    TMP DP  RH WIND       PRES   REMARKS
ATLANTIC *     SUNNY     72  41  33 NW25G32   30.00R
AUDUBON *      MOSUNNY   70  39  32 NW8G21    30.00S
CLARINDA *     SUNNY     75  39  27 NW16G24   30.02S
COUNCIL BLFS * MOSUNNY   73  41  31 NW20G30   30.01S
CRESTON *      MOSUNNY   73  41  31 W18G30    30.00S
HARLAN  *      MOSUNNY   72  39  30 NW30      30.03S
LAMONI         MOSUNNY   74  43  32 W14G32    29.99S
6HR MIN TEMP:  59; 6HR MAX TEMP:  74;

RED OAK *      MOSUNNY   73  45  35 W15G25    30.01R
SHENANDOAH *   MOSUNNY   75  41  29 NW16G29   30.02R
$$

IAZ047>049-059>061-072>074-084-291900-
   CENTRAL IOWA

CITY           SKY/WX    TMP DP  RH WIND       PRES   REMARKS
AMES           PTSUNNY   70  45  40 NW21G29   29.94R
6HR MIN TEMP:  56; 6HR MAX TEMP:  72;

ANKENY *       MOSUNNY   72  45  37 W17G29    29.96S
BOONE *        MOSUNNY   70  43  37 W25G31    29.94R
CHARITON *     SUNNY     73  39  29 W22G29    29.96S
DES MOINES     MOSUNNY   74  41  30 W25G35    29.95R
6HR MIN TEMP:  57; 6HR MAX TEMP:  75;

GRINNELL*      MOSUNNY   71  43  36 W23G30    29.95S
KNOXVILLE *    MOSUNNY   72  41  33 W22G32    29.94S
MARSHALLTOWN   PTSUNNY   68  45  43 W20G30    29.91S
6HR MIN TEMP:  54; 6HR MAX TEMP:  70;

NEWTON *       MOSUNNY   72  43  35 W20G30    29.93S
PELLA *        SUNNY     73  41  32 W18       29.96R
PERRY *        PTSUNNY   72  36  27 NW20G31   29.96S
$$

IAZ004>006-015-016-023>025-035-036-291900-
   NORTH CENTRAL IOWA

CITY           SKY/WX    TMP DP  RH WIND       PRES   REMARKS
ALGONA *       MOSUNNY   68  45  42 W23G32    29.91S
CLARION *      PTSUNNY   68  43  40 NW22G31   29.91S
ESTHERVILLE    CLOUDY    63  46  54 NW29      29.92R
6HR MIN TEMP:  52; 6HR MAX TEMP:  64;

FORT DODGE *   PTSUNNY   68  45  42 NW14G22   29.94R
MASON CITY     CLOUDY    65  44  46 W20       29.90S
6HR MIN TEMP:  54; 6HR MAX TEMP:  66;

FOREST CITY *  PTSUNNY   68  32  26 NW18G24   29.89S
WEBSTER CITY * MOSUNNY   72  41  33 W23G32    29.91S
IOWA FALLS *   CLOUDY    68  43  40 W21       29.93R
$$

IAZ007>011-017>019-026>030-037>042-050>054-066-291900-
   NORTHEAST IOWA

CITY           SKY/WX    TMP DP  RH WIND       PRES   REMARKS
CEDAR RAPIDS   PTSUNNY   71  46  40 W24G35    29.89F
6HR MIN TEMP:  56; 6HR MAX TEMP:  72;

CHARLES CITY * CLOUDY    66  41  39 W20G28    29.88S
CLINTON *      SUNNY     71  46  40 W22G33    29.88S
DECORAH *      PTSUNNY   63  45  51 NW13G23   29.85R
DUBUQUE        MOSUNNY   69  47  45 W22G31    29.88R
6HR MIN TEMP:  55; 6HR MAX TEMP:  69;

MONTICELLO *   MOSUNNY   70  46  43 W16G29    29.88S
OELWEIN *      PTSUNNY   66  45  45 W23       29.89R
WATERLOO       PTSUNNY   68  43  40 NW17G25   29.88S
6HR MIN TEMP:  58; 6HR MAX TEMP:  69;

$$

IAZ064-065-067-068-078-291900-
   EAST CENTRAL IOWA

CITY           SKY/WX    TMP DP  RH WIND       PRES   REMARKS
DAVENPORT      SUNNY     74  44  34 W21G29    29.89F
6HR MIN TEMP:  58; 6HR MAX TEMP:  74; 6HR PCP: TRACE;

IOWA CITY      MOSUNNY   73  47  39 W18G24    29.92S
6HR MIN TEMP:  57; 6HR MAX TEMP:  74; 6HR PCP: TRACE;

MT. PLEASANT * SUNNY     74  37  26 W15G23    29.93S
MUSCATINE *    SUNNY     73  45  35 W21G29    29.91F
QUAD CITIES    SUNNY     74  45  35 W20       29.89S
6HR MIN TEMP:  60; 6HR MAX TEMP:  74; 6HR PCP: TRACE;

$$

IAZ062-063-075>077-085>089-095>099-291900-
   SOUTHEAST IOWA

CITY           SKY/WX    TMP DP  RH WIND       PRES   REMARKS
BURLINGTON     MOSUNNY   76  44  32 W15G25    29.92S
6HR MIN TEMP:  60; 6HR MAX TEMP:  76;

FAIRFIELD *    SUNNY     73  41  31 W23G29    29.93S
FORT MADISON * MOSUNNY   77  45  31 NW13G18   29.94S
KEOKUK *       MOSUNNY   75  46  35 NW10      29.94R
OSKALOOSA *      N/A     75  38  26 NW23G31   29.94S
CENTERVILLE *    N/A     75  39  27 NW18G24   29.98S
OTTUMWA        SUNNY     73  44  35 W15G23    29.94S
6HR MIN TEMP:  58; 6HR MAX TEMP:  74; 6HR PCP: TRACE;

WASHINGTON *   SUNNY     73  43  33 W20G32    29.93F
$$

ABBREVIATIONS USED IN REMARKS
   TC - TEMPERATURES IN CELSIUS
  WCI - WIND CHILL INDEX
   HX - HEAT INDEX
  VSB - VISIBILITY
$$




USA.gov is the U.S. government's official web portal to all federal, state and local government web resources and services.